This is the latest recevied weather packets stored in our database for station/object K1RFS. If no packets are shown the sender has not sent any weather packets the latest 10 day(s).
| Time | Temp. | Humidity | Pressure | Rain* | Wind** | Luminosity | Snow |
|---|---|---|---|---|---|---|---|
| 1778010601 | 12.22° C | 54% | 995.9 hPa | 0 mm | - | 142 W/m² | - |
| 1778010293 | 12.22° C | 54% | 995.8 hPa | 0 mm | - | 163 W/m² | - |
| 1778009993 | 12.22° C | 54% | 995.7 hPa | 0 mm | - | 137 W/m² | - |
| 1778009690 | 12.22° C | 54% | 995.9 hPa | 0 mm | - | 123 W/m² | - |
| 1778009388 | 12.78° C | 54% | 995.8 hPa | 0 mm | - | 128 W/m² | - |
| 1778009086 | 12.78° C | 53% | 995.8 hPa | 0 mm | - | 182 W/m² | - |
| 1778008783 | 12.78° C | 54% | 995.7 hPa | 0 mm | - | 241 W/m² | - |
| 1778008482 | 12.22° C | 54% | 995.6 hPa | 0 mm | - | 243 W/m² | - |
| 1778008178 | 12.22° C | 56% | 995.8 hPa | 0 mm | - | 201 W/m² | - |
| 1778007873 | 12.22° C | 56% | 995.8 hPa | 0 mm | - | 146 W/m² | - |
| 1778007569 | 12.22° C | 56% | 995.7 hPa | 0 mm | - | 144 W/m² | - |
| 1778007267 | 12.22° C | 56% | 995.8 hPa | 0 mm | - | 174 W/m² | - |
| 1778006963 | 12.22° C | 56% | 995.6 hPa | 0 mm | - | 172 W/m² | - |
| 1778006660 | 12.22° C | 56% | 995.8 hPa | 0 mm | - | 158 W/m² | - |
| 1778006356 | 12.22° C | 55% | 995.8 hPa | 0 mm | - | 190 W/m² | - |
| 1778006053 | 12.22° C | 55% | 995.8 hPa | 0 mm | - | 190 W/m² | - |
| 1778005750 | 12.78° C | 55% | 995.7 hPa | 0 mm | - | 223 W/m² | - |
| 1778005446 | 12.78° C | 55% | 995.7 hPa | 0 mm | - | 378 W/m² | - |
| 1778005143 | 12.22° C | 57% | 995.6 hPa | 0 mm | - | 339 W/m² | - |
| 1778004840 | 11.67° C | 58% | 995.8 hPa | 0 mm | - | 367 W/m² | - |
| 1778004537 | 11.67° C | 59% | 995.6 hPa | 0 mm | - | 333 W/m² | - |
| 1778004233 | 11.11° C | 59% | 995.9 hPa | 0 mm | - | 229 W/m² | - |
| 1778003930 | 11.11° C | 60% | 995.9 hPa | 0 mm | - | 171 W/m² | - |
| 1778003626 | 11.11° C | 61% | 995.9 hPa | 0 mm | - | 156 W/m² | - |
| 1778003323 | 11.11° C | 61% | 996 hPa | 0 mm | - | 170 W/m² | - |
* Rain latest hour (hover to see other rain measurements)
** Current wind speed in m/s (hover to see current wind gust speed)